Погода Новый Уренгой

Погода Новый Уренгой : погода сейчас, прогноз погоды и архив. Всё, что Вы хотите узнать о погоде Новый Уренгой!

Хотите узнать прогноз погоды Новый Уренгой? Тогда Вам сюда: Погода Новый Уренгой

Поиск расширенной информации на нашем сайте:

Другие новости

Новости СМИ2

Главная страница сайта

Новости сайта

03.07.2017

Напоминаем, что на нашем специализированном сайте Метеоцентр.Азия вы можете получить высокодетализированные автоматические прогнозы погоды по пунктам России, СНГ и мира в авиационном формате (включающие направление и скорость ветра, видимость, явления погоды, количество и форму облачности, нижнюю и верхнюю границу облачности).


Погода Новый Уренгой - сегодня

Время (UTC), дата Ветер
(°,м/с) 
Видим.   Явления Облачность Т
(°С)
Тd
(°С)
f(%) Тe
(°С)
Pmin
(гПа)
dP
(гПа)
Po
(мм)
O2
(г/м3)
Тmin Tmax R s Состояние
почвы
09 15.08.17 250 (З) 6-10{11}  20000 м    10/3 1000 м средняя, верхняя 
[Sc|Ac trans|Ci fib]
+24.2 +14.2 54 +31  1008.5  -0.8  751  275           
12 15.08.17 260 (З) 5{11}  20000 м    10/4 1000 м верхняя 
[Sc|Ci fib]
+23.7 +14.5 56 +31  1009.2  0.5  752  276           
15 15.08.17 180 (Ю) 10 км    10/3 1000 м средняя, верхняя 
[Sc|Ac trans|Ci fib]
+18.8 +15 79 +29  1009.3  752  280    +24.3       
18 15.08.17 040 (СВ) 2{10}  10 км    10/0 средняя, верхняя 
[Ac trans|Ci fib]
+16.6 +15.4 93 +26  1009.6  0.3  752  282           
21 15.08.17 030 (СВ) 4000 м  дымка  10/10 100 м 
[St]
+14.5 +14.2 98 +21  1009.6  752  285           
00 16.08.17 360 (С) 10 км  слаб. дождь  10/8 100 м средняя 
[Frnb|As op]
+11.1 +10.8 98 +13  1010.4  0.7  752  289           
03 16.08.17 010 (С) 10 км  слаб. дождь  10/8 200 м средняя 
[Frnb|As op]
+10.8 +10.3 97 +12  1010.4  752  290  +10.6       
06 16.08.17 350 (С) 10 км  слаб. дождь  10/8 100 м средняя 
[Frnb|As op]
+10.7 +10.1 96 +11  1010.7  0.3  752  290           
09 16.08.17 340 (С) 10 км  слаб. дождь  10/8 100 м средняя 
[Frnb|As op]
+10.3 +9.6 95 +10  1011.8  1.1  753  291           
12 16.08.17 330 (СЗ) 10 км  {дождь}  10/5 600 м средняя, верхняя 
[Sc|Ac trans|Ci fib]
+12.2 +9.2 82 +12  1013.3  1.4  754  289           
15 16.08.17 310 (СЗ) 20000 м    8/0 средняя, верхняя 
[Ac trans|Ci fib]
+11.1 +8.7 85 +11  1014.3  755  291    +12.3     
18 16.08.17 310 (СЗ) 10 км    10/0 средняя, верхняя 
[Ac trans|Ci fib]
+7.5 +6.8 95 +7  1015.5  1.1  756  295           
21 16.08.17 300 (СЗ) 10 км    6/0 верхняя 
[Ci fib]
+6.5 +6.3 99 +6  1016.2  0.7  756  297           
00 17.08.17 290 (З) 1000 м  дымка  10/5 100 м верхняя 
[St|Ci fib]
+5 +4.7 98 +5  1017.5  1.3  757  299           
03 17.08.17 310 (СЗ) 20000 м    10/4 600 м верхняя 
[Sc|Ci fib]
+10 +8.7 92 +10  1018  0.6  758  293  +3.6        влажная 
06 17.08.17 310 (СЗ) 20000 м    6/4 600 м верхняя 
[Cu med, cong|Ci fib]
+13.7 +5.2 56 +14  1018.4  0.4  758  290           
09 17.08.17 330 (СЗ) 20000 м    8/5 1000 м верхняя 
[Cu hum|Ci fib]
+14.7 +5.2 53 +15  1018.5  0.2  758  289           
12 17.08.17 280 (З) 20000 м    8/3 1000 м кучево-дожд., средняя, верхняя 
[Cb calv|Ac trans|Ci fib]
+14.9 +5.4 53 +15  1018.8  0.3  759  289           
15 17.08.17 280 (З) 20000 м    10/3 1000 м верхняя 
[Sc|Ci fib]
+10.2 +7.7 84 +10  1019.6  0.7  759  294    +15.8       
18 17.08.17 250 (З) 10 км    10/3 1000 м средняя, верхняя 
[Sc|Ac trans|Ci fib]
+7.4 +6.5 94 +7  1020.6  0.9  760  297           
21 17.08.17 270 (З) 10 км    8/3 1000 м средняя, верхняя 
[Sc|Ac trans|Ci fib]
+7.5 +6.4 93 +7  1020.8  0.2  760  297           
00 18.08.17 240 (ЮЗ) 20000 м    10/4 1000 м средняя, верхняя 
[Sc|Ac trans|Ci fib]
+7.1 +6.1 93 +6  1020.7  -0.1  760  297           
03 18.08.17 250 (З) 20000 м    10/3 1000 м средняя, верхняя 
[Sc|Ac trans|Ci fib]
+9.5 +7.5 87 +9  1020.6  760  295  +5.6         
06 18.08.17 270 (З) 20000 м    6/3 1000 м верхняя 
[Cu hum|Ci fib]
+14.5 +4.5 51 +14  1020.1  -0.5  759  290           
09 18.08.17 260 (З) 20000 м    6/4 1000 м верхняя 
[Cu hum|Ci fib]
+16.6 +3.9 43 +17  1018.9  -1.1  759  288           
Время (UTC), дата Ветер
(°,м/с) 
Видим.   Явления Облачность Т
(°С)
Тd
(°С)
f(%) Тe
(°С)
Pmin
(гПа)
dP
(гПа)
Po
(мм)
O2
(г/м3)
Тmin Tmax R s Состояние
почвы

Для получения пояснительной информации подведите курсор к названию столбца.

ПОГОДА Новый Уренгой - архив

Всё, что Вы хотите узнать о погоде Новый Уренгой - удобно и подробно!

Выберите нужную дату (начиная с 1 января 2015* года) и нажмите кнопку "Найти".
Будут отображены архивные сводки погоды по пункту Новый Уренгой, начиная с указанной даты.


Отображать данные в формате CSV (для использования в таблицах Excel)


Внимание! Наш архив погоды предназначен исключительно для личного некоммерческого использования в познавательных целях. Если Вам необходимы официальные справки о состоянии погоды (для производственных, юридических, коммерческих и т.п. целей), обращайтесь в органы Росгидромета.

*Примечание: данная дата относится к архиву по метеостанциям СССР (Россия, СНГ, Балтия).
Архив по метеостанциям Зарубежной Европы и Азии (кроме Китая) хранится 10 дней, по другим регионам земного шара (Китай, Африка, Америка, Австралия, Океания) - 1 день.

Новый Уренгой - район местоположения метеостанции


Название, широта, долгота, высота метеостанции:
Новый Уренгой 66.1°ш. 76.5°д. 64 м над ур. моря [Российская Федерация]

Дополнительная информация

В oтличие oт бoльшинства пoгoдных сайтoв мы публикуем пoдрoбную метеoинфoрмацию в детальнoм прoфессиoнальнoм фoрмате.

Характеристики температуры и влажнoсти вoздуха измеряются на высoте 2 м в тени вдали oт зданий и деревьев.
Скoрoсть ветра измеряется на высoте 10 м (на урoвне рoста челoвека скoрoсть ветра ниже в 1.5-2 раза). Если метеoстанция нахoдится в гoрoде или в лесу, тo скoрoсть ветра занижена на 2-4 м/с пo сравнению с oткрытым местoм. Скoрoсть ветра над акватoриями крупных рек и oзёр, а также на вершинах хoлмoв на 2-5 м/с выше, чем в oбычных услoвиях.
Атмoсфернoе давление в разных тoчках местнoсти мoжет значительнo oтличаться oт давления на метеoстанции, в зависимoсти oт услoвий рельефа (при пoдъёме на 10 м давление пoнижается примернo на 1 мм рт.ст.).